Regional Weather Roundup
Issued by NWS

Home | Current Version | Previous Version | Text Only | Print | Product List | Glossary On
Versions: 1 2 3 4 5 6 7 8 9 10 11 12 13 14 15 16 17 18 19 20 21 22 23 24 25 26 27 28 29 30 31 32 33 34 35 36 37 38 39 40 41 42 43 44 45 46 47 48 49 50
000
ASUS43 KDMX 240201
RWRIA

WEATHER ROUNDUP FOR IOWA
NATIONAL WEATHER SERVICE DES MOINES IA
900 PM CDT TUE MAY 23 2017

NOTE: "FAIR" INDICATES FEW OR NO CLOUDS BELOW 12,000 FEET WITH NO
SIGNIFICANT WEATHER AND/OR OBSTRUCTIONS TO VISIBILITY.

* - THESE STATIONS ARE NOT NWS STATIONS...THUS NOT UNDER NWS
QUALITY CONTROL.  THEY ALSO DO NOT REPORT WEATHER SUCH
AS PRECIPITATION OR FOG.

IAZ001>003-012>014-020>022-031>034-043>046-240300-
   NORTHWEST IOWA

CITY           SKY/WX    TMP DP  RH WIND       PRES   REMARKS
CARROLL *      CLOUDY    54  50  87 NW9       29.79S
CHEROKEE *     PTCLDY    49  49  98 CALM      29.83R
DENISON *      DRIZZLE   50  46  87 N5        29.83S
LE MARS *      CLOUDY    52  46  82 N8        29.86R
ORANGE CITY *  CLEAR     52  48  87 N8        29.84S
SHELDON *      CLOUDY    52  46  82 N10         N/A
SIOUX CITY     MOCLDY    51  50  96 NW12      29.84S
SPENCER        LGT RAIN  52  48  86 N10       29.82R
STORM LAKE *   MOCLDY    50  46  87 N6        29.82R
$$

IAZ055>058-069>071-079>083-090>094-240300-
   SOUTHWEST IOWA

CITY           SKY/WX    TMP DP  RH WIND       PRES   REMARKS
ATLANTIC *     CLEAR     52  48  87 NW12      29.80S
AUDUBON *      CLOUDY    48  45  87 NW3       29.81S
CLARINDA *     CLOUDY    54  46  76 NW8       29.82F
COUNCIL BLFS * CLOUDY    50  50 100 NW8       29.82F
CRESTON *      PTCLDY    50  45  81 NW10      29.80R
HARLAN  *      CLOUDY    50  48  93 NW12      29.84S
LAMONI         PTCLDY    52  46  80 NW7       29.77S
RED OAK *      CLOUDY    54  48  82 NW6       29.81S
SHENANDOAH *   CLOUDY    52  48  87 NW6       29.82F
$$

IAZ047>049-059>061-072>074-084-240300-
   CENTRAL IOWA

CITY           SKY/WX    TMP DP  RH WIND       PRES   REMARKS
AMES           MOCLDY    51  50  96 NW5       29.75F
ANKENY *       CLOUDY    55  46  71 N7G14     29.76S
BOONE *        CLOUDY    52  48  87 N10       29.75F
CHARITON *     MOCLDY    52  48  87 NW7       29.75S
DES MOINES     MOCLDY    55  45  68 NW9       29.75F
GRINNELL*      CLEAR     51  46  86 NW6       29.74F
KNOXVILLE *    CLOUDY    54  46  76 W7        29.73S
MARSHALLTOWN   PTCLDY    50  47  89 NW6       29.73F
NEWTON *       PTCLDY    54  45  71 N9        29.73S
PELLA *        MOCLDY    53  47  80 W3        29.75S
PERRY *          N/A     53  49  86 NW5       29.77S
$$

IAZ004>006-015-016-023>025-035-036-240300-
   NORTH CENTRAL IOWA

CITY           SKY/WX    TMP DP  RH WIND       PRES   REMARKS
ALGONA *       CLOUDY    52  50  93 N8        29.80S
CLARION *      CLOUDY    52  52 100 N12       29.77S
ESTHERVILLE    CLOUDY    50  47  89 N8        29.81R
FORT DODGE *   CLOUDY    52  45  76 N6        29.79S
MASON CITY     LGT RAIN  50  48  93 N13       29.78S
FOREST CITY *  LGT RAIN  50  45  81 N8        29.78S
WEBSTER CITY * CLOUDY    52  48  87 N10       29.75S
IOWA FALLS *   MOCLDY    53  48  81 N12       29.76S
$$

IAZ007>011-017>019-026>030-037>042-050>054-066-240300-
   NORTHEAST IOWA

CITY           SKY/WX    TMP DP  RH WIND       PRES   REMARKS
CEDAR RAPIDS   CLOUDY    54  51  90 N3        29.70F
CHARLES CITY * CLOUDY    52  52 100 N9        29.75S
CLINTON *      LGT RAIN  54  52  93 N8        29.70F
DECORAH *      CLOUDY    54  50  87 N9        29.72S
DUBUQUE        MOCLDY    54  50  86 NW5       29.70S
MONTICELLO *   MOCLDY    55  46  71 NW3       29.71R
OELWEIN *      CLOUDY    52  52 100 NW7       29.73S
WATERLOO       RAIN      52  49  89 NW8       29.72S FOG
$$

IAZ064-065-067-068-078-240300-
   EAST CENTRAL IOWA

CITY           SKY/WX    TMP DP  RH WIND       PRES   REMARKS
DAVENPORT      CLOUDY    56  50  80 NW8       29.71S
IOWA CITY      PTCLDY    55  48  77 CALM      29.73S
MT. PLEASANT * CLEAR     55  46  71 CALM      29.72F
MUSCATINE *    CLOUDY    55  48  76 NW6       29.72S
QUAD CITIES    MOCLDY    57  49  74 W7        29.70S
$$

IAZ062-063-075>077-085>089-095>099-240300-
   SOUTHEAST IOWA

CITY           SKY/WX    TMP DP  RH WIND       PRES   REMARKS
BURLINGTON     PTCLDY    56  50  80 NW3       29.71S
FAIRFIELD *    CLOUDY    55  46  71 NW6       29.72S
FORT MADISON * CLOUDY    55  52  88 NW3       29.72F
KEOKUK *       CLOUDY    55  48  76 MISG      29.71F
OSKALOOSA *      N/A     54  46  76 NW7       29.73S
OTTUMWA        CLEAR     52  46  80 W5        29.73S
WASHINGTON *   CLOUDY    55  48  76 N3        29.73F
$$

ABBREVIATIONS USED IN REMARKS
   TC - TEMPERATURES IN CELSIUS
  WCI - WIND CHILL INDEX
   HX - HEAT INDEX
  VSB - VISIBILITY
$$




USA.gov is the U.S. government's official web portal to all federal, state and local government web resources and services.